www.cux-wetter.de
Wetterdaten: Samstag, 22.06.2013
Datum Zeit Temp. A. Feuchte A. Luftdruck Regen Wind Richtung Richtung Sonnenschein Solar Taupunkt Windchill Windben
22.06.2013 00:00 16,6 C 85 % 1009,5 hPa 0,0 l/m 36,0 km/h (5 Bft) W 270 0 min 0 W/m 14,1 C 9,1 C 36,0 km/h (5 Bft)
22.06.2013 00:15 16,5 C 86 % 1010,5 hPa 0,0 l/m 35,3 km/h (5 Bft) W 275 0 min 0 W/m 14,1 C 9,1 C 35,3 km/h (5 Bft)
22.06.2013 00:30 16,4 C 85 % 1010,5 hPa 0,0 l/m 31,8 km/h (5 Bft) W 270 0 min 0 W/m 13,9 C 9,4 C 31,8 km/h (5 Bft)
22.06.2013 00:45 16,4 C 85 % 1010,5 hPa 0,0 l/m 32,4 km/h (5 Bft) W 280 0 min 0 W/m 13,9 C 9,3 C 32,4 km/h (5 Bft)
22.06.2013 01:00 16,4 C 85 % 1010,5 hPa 0,0 l/m 40,2 km/h (6 Bft) W 280 0 min 0 W/m 13,9 C 8,4 C 40,2 km/h (6 Bft)
22.06.2013 01:15 16,4 C 86 % 1010,5 hPa 0,0 l/m 31,6 km/h (5 Bft) W 275 0 min 0 W/m 14,1 C 9,4 C 31,6 km/h (5 Bft)
22.06.2013 01:30 16,3 C 86 % 1010,5 hPa 0,0 l/m 35,4 km/h (5 Bft) W 275 0 min 0 W/m 14,0 C 8,8 C 35,4 km/h (5 Bft)
22.06.2013 01:45 16,3 C 86 % 1010,5 hPa 0,0 l/m 30,1 km/h (5 Bft) W 270 0 min 0 W/m 14,0 C 9,5 C 30,1 km/h (5 Bft)
22.06.2013 02:00 16,2 C 86 % 1010,5 hPa 0,0 l/m 31,6 km/h (5 Bft) W 270 0 min 0 W/m 13,9 C 9,1 C 31,6 km/h (5 Bft)
22.06.2013 02:15 16,2 C 86 % 1010,5 hPa 0,0 l/m 31,6 km/h (5 Bft) W 270 0 min 0 W/m 13,9 C 9,1 C 31,6 km/h (5 Bft)
22.06.2013 02:30 16,2 C 86 % 1010,5 hPa 0,0 l/m 38,9 km/h (6 Bft) W 275 0 min 0 W/m 13,9 C 8,2 C 38,9 km/h (6 Bft)
22.06.2013 02:45 16,2 C 86 % 1010,5 hPa 0,0 l/m 33,8 km/h (5 Bft) W 280 0 min 0 W/m 13,9 C 8,8 C 33,8 km/h (5 Bft)
22.06.2013 03:00 16,2 C 86 % 1010,5 hPa 0,0 l/m 34,8 km/h (5 Bft) W 280 0 min 0 W/m 13,9 C 8,7 C 34,8 km/h (5 Bft)
22.06.2013 03:15 16,2 C 86 % 1010,5 hPa 0,0 l/m 33,4 km/h (5 Bft) W 275 0 min 0 W/m 13,9 C 8,9 C 33,4 km/h (5 Bft)
22.06.2013 03:30 16,2 C 86 % 1010,5 hPa 0,0 l/m 39,7 km/h (6 Bft) W 280 0 min 0 W/m 13,9 C 8,1 C 39,7 km/h (6 Bft)
22.06.2013 03:45 16,1 C 85 % 1010,5 hPa 0,0 l/m 32,1 km/h (5 Bft) W 275 0 min 0 W/m 13,6 C 8,9 C 32,1 km/h (5 Bft)
22.06.2013 04:01 16,1 C 85 % 1010,5 hPa 0,0 l/m 28,0 km/h (5 Bft) W 275 0 min 0 W/m 13,6 C 9,6 C 28,0 km/h (5 Bft)
22.06.2013 04:15 16,0 C 85 % 1010,5 hPa 0,0 l/m 36,0 km/h (5 Bft) W 275 0 min 0 W/m 13,5 C 8,3 C 36,0 km/h (5 Bft)
22.06.2013 04:30 16,0 C 85 % 1010,5 hPa 0,0 l/m 32,9 km/h (5 Bft) W 270 0 min 0 W/m 13,5 C 8,7 C 32,9 km/h (5 Bft)
22.06.2013 04:45 16,0 C 85 % 1010,5 hPa 0,0 l/m 34,2 km/h (5 Bft) W-NW 285 0 min 0 W/m 13,5 C 8,5 C 34,2 km/h (5 Bft)
22.06.2013 05:01 16,0 C 85 % 1010,5 hPa 0,0 l/m 35,1 km/h (5 Bft) W 270 0 min 0 W/m 13,5 C 8,4 C 35,1 km/h (5 Bft)
22.06.2013 05:15 16,0 C 85 % 1010,5 hPa 0,0 l/m 31,7 km/h (5 Bft) W 270 0 min 0 W/m 13,5 C 8,8 C 31,7 km/h (5 Bft)
22.06.2013 05:30 16,0 C 85 % 1010,5 hPa 0,0 l/m 28,1 km/h (5 Bft) W 275 0 min 0 W/m 13,5 C 9,4 C 28,1 km/h (5 Bft)
22.06.2013 05:46 16,0 C 86 % 1010,5 hPa 0,0 l/m 29,6 km/h (5 Bft) W 260 0 min 0 W/m 13,7 C 9,2 C 29,6 km/h (5 Bft)
22.06.2013 06:01 15,9 C 86 % 1010,5 hPa 0,0 l/m 26,5 km/h (4 Bft) W-SW 250 0 min 0 W/m 13,6 C 9,5 C 26,5 km/h (4 Bft)
22.06.2013 06:15 15,8 C 86 % 1009,5 hPa 0,0 l/m 24,2 km/h (4 Bft) W 265 0 min 0 W/m 13,5 C 9,9 C 24,2 km/h (4 Bft)
22.06.2013 06:30 15,8 C 86 % 1009,5 hPa 0,0 l/m 28,2 km/h (5 Bft) W 270 0 min 0 W/m 13,5 C 9,1 C 28,2 km/h (5 Bft)
22.06.2013 06:46 16,0 C 86 % 1009,5 hPa 0,0 l/m 28,8 km/h (5 Bft) W 270 0 min 0 W/m 13,7 C 9,3 C 28,8 km/h (5 Bft)
22.06.2013 07:00 16,0 C 85 % 1009,5 hPa 0,0 l/m 26,6 km/h (4 Bft) W 265 0 min 0 W/m 13,5 C 9,7 C 26,6 km/h (4 Bft)
22.06.2013 07:15 16,1 C 85 % 1009,5 hPa 0,0 l/m 30,5 km/h (5 Bft) W 275 0 min 0 W/m 13,6 C 9,2 C 30,5 km/h (5 Bft)
22.06.2013 07:30 16,4 C 85 % 1009,5 hPa 0,0 l/m 33,0 km/h (5 Bft) W 270 0 min 0 W/m 13,9 C 9,2 C 33,0 km/h (5 Bft)
22.06.2013 07:45 16,4 C 85 % 1009,5 hPa 0,0 l/m 32,7 km/h (5 Bft) W 280 0 min 0 W/m 13,9 C 9,3 C 32,7 km/h (5 Bft)
22.06.2013 08:00 16,4 C 85 % 1009,5 hPa 0,0 l/m 29,5 km/h (5 Bft) W 265 0 min 0 W/m 13,9 C 9,7 C 29,5 km/h (5 Bft)
22.06.2013 08:15 16,5 C 85 % 1010,5 hPa 0,0 l/m 27,5 km/h (5 Bft) W 265 0 min 0 W/m 14,0 C 10,2 C 27,5 km/h (5 Bft)
22.06.2013 08:30 16,6 C 84 % 1010,5 hPa 0,0 l/m 26,1 km/h (4 Bft) W 270 0 min 0 W/m 13,9 C 10,6 C 26,1 km/h (4 Bft)
22.06.2013 08:45 16,7 C 84 % 1010,5 hPa 0,0 l/m 25,1 km/h (4 Bft) W 260 0 min 0 W/m 14,0 C 10,9 C 25,1 km/h (4 Bft)
22.06.2013 09:00 16,8 C 84 % 1010,5 hPa 0,0 l/m 27,4 km/h (5 Bft) W 260 0 min 0 W/m 14,1 C 10,6 C 27,4 km/h (5 Bft)
22.06.2013 09:15 17,0 C 83 % 1010,5 hPa 0,0 l/m 29,5 km/h (5 Bft) W 265 0 min 0 W/m 14,1 C 10,6 C 29,5 km/h (5 Bft)
22.06.2013 09:30 17,2 C 83 % 1010,5 hPa 0,0 l/m 26,4 km/h (4 Bft) W 270 0 min 0 W/m 14,3 C 11,3 C 26,4 km/h (4 Bft)
22.06.2013 09:45 17,4 C 81 % 1010,5 hPa 0,0 l/m 28,3 km/h (5 Bft) W 270 0 min 0 W/m 14,1 C 11,3 C 28,3 km/h (5 Bft)
22.06.2013 10:00 17,4 C 82 % 1010,5 hPa 0,0 l/m 24,1 km/h (4 Bft) W 265 0 min 0 W/m 14,3 C 12,0 C 24,1 km/h (4 Bft)
22.06.2013 10:15 17,4 C 81 % 1010,5 hPa 0,0 l/m 28,9 km/h (5 Bft) W-SW 255 0 min 0 W/m 14,1 C 11,2 C 28,9 km/h (5 Bft)
22.06.2013 10:30 17,2 C 82 % 1010,5 hPa 0,0 l/m 22,9 km/h (4 Bft) W-SW 250 0 min 0 W/m 14,1 C 12,0 C 22,9 km/h (4 Bft)
22.06.2013 10:45 17,0 C 82 % 1010,5 hPa 0,0 l/m 20,3 km/h (4 Bft) W 270 0 min 0 W/m 13,9 C 12,3 C 20,3 km/h (4 Bft)
22.06.2013 11:00 17,0 C 82 % 1010,5 hPa 0,0 l/m 27,3 km/h (5 Bft) W 265 0 min 0 W/m 13,9 C 10,9 C 27,3 km/h (5 Bft)
22.06.2013 11:15 16,9 C 82 % 1010,5 hPa 0,0 l/m 32,1 km/h (5 Bft) W 275 0 min 0 W/m 13,8 C 10,1 C 32,1 km/h (5 Bft)
22.06.2013 11:30 17,2 C 82 % 1010,5 hPa 0,0 l/m 25,7 km/h (4 Bft) W 270 0 min 0 W/m 14,1 C 11,5 C 25,7 km/h (4 Bft)
22.06.2013 11:45 18,1 C 80 % 1010,5 hPa 0,0 l/m 32,8 km/h (5 Bft) W 270 0 min 0 W/m 14,6 C 11,7 C 32,8 km/h (5 Bft)
22.06.2013 12:00 19,2 C 76 % 1009,5 hPa 0,0 l/m 38,3 km/h (6 Bft) W 270 0 min 0 W/m 14,9 C 12,7 C 38,3 km/h (6 Bft)
22.06.2013 12:15 20,2 C 72 % 1009,5 hPa 0,0 l/m 32,3 km/h (5 Bft) W 265 0 min 0 W/m 15,0 C 14,7 C 32,3 km/h (5 Bft)
22.06.2013 12:30 20,4 C 70 % 1009,5 hPa 0,0 l/m 37,4 km/h (5 Bft) W 275 0 min 0 W/m 14,7 C 14,5 C 37,4 km/h (5 Bft)
22.06.2013 12:45 21,1 C 68 % 1009,5 hPa 0,0 l/m 34,1 km/h (5 Bft) W 265 0 min 0 W/m 15,0 C 15,8 C 34,1 km/h (5 Bft)
22.06.2013 13:00 21,8 C 65 % 1009,5 hPa 0,0 l/m 33,4 km/h (5 Bft) W 260 0 min 0 W/m 14,9 C 16,9 C 33,4 km/h (5 Bft)
22.06.2013 13:15 21,8 C 63 % 1009,5 hPa 0,0 l/m 37,4 km/h (5 Bft) W 260 0 min 0 W/m 14,4 C 16,6 C 37,4 km/h (5 Bft)
22.06.2013 13:30 21,2 C 65 % 1009,5 hPa 0,0 l/m 36,0 km/h (5 Bft) W 270 0 min 0 W/m 14,4 C 15,8 C 36,0 km/h (5 Bft)
22.06.2013 13:45 21,9 C 62 % 1009,5 hPa 0,0 l/m 28,4 km/h (5 Bft) W 280 0 min 0 W/m 14,3 C 17,6 C 28,4 km/h (5 Bft)
22.06.2013 14:00 22,2 C 59 % 1009,5 hPa 0,0 l/m 33,4 km/h (5 Bft) W 265 0 min 0 W/m 13,8 C 17,5 C 33,4 km/h (5 Bft)
22.06.2013 14:15 22,5 C 59 % 1009,5 hPa 0,0 l/m 35,9 km/h (5 Bft) W 270 0 min 0 W/m 14,1 C 17,7 C 35,9 km/h (5 Bft)
22.06.2013 14:30 22,5 C 59 % 1009,5 hPa 0,0 l/m 32,6 km/h (5 Bft) W 270 0 min 0 W/m 14,1 C 18,0 C 32,6 km/h (5 Bft)
22.06.2013 14:45 21,9 C 61 % 1009,5 hPa 0,0 l/m 28,5 km/h (5 Bft) W 270 0 min 0 W/m 14,0 C 17,5 C 28,5 km/h (5 Bft)
22.06.2013 15:01 22,0 C 61 % 1008,5 hPa 0,0 l/m 35,0 km/h (5 Bft) W 270 0 min 0 W/m 14,1 C 17,1 C 35,0 km/h (5 Bft)
22.06.2013 15:15 21,8 C 61 % 1008,5 hPa 0,0 l/m 29,5 km/h (5 Bft) W 260 0 min 0 W/m 13,9 C 17,3 C 29,5 km/h (5 Bft)
22.06.2013 15:30 22,0 C 62 % 1008,5 hPa 0,0 l/m 29,9 km/h (5 Bft) W 260 0 min 0 W/m 14,4 C 17,5 C 29,9 km/h (5 Bft)
22.06.2013 15:45 21,4 C 63 % 1008,5 hPa 0,0 l/m 29,5 km/h (5 Bft) W 265 0 min 0 W/m 14,1 C 16,7 C 29,5 km/h (5 Bft)
22.06.2013 16:01 20,9 C 65 % 1008,5 hPa 0,0 l/m 22,8 km/h (4 Bft) W 270 0 min 0 W/m 14,1 C 16,9 C 22,8 km/h (4 Bft)
22.06.2013 16:15 21,2 C 67 % 1008,5 hPa 0,0 l/m 18,6 km/h (3 Bft) SW 225 0 min 0 W/m 14,8 C 18,0 C 18,6 km/h (3 Bft)
22.06.2013 16:30 21,2 C 67 % 1008,5 hPa 0,0 l/m 21,9 km/h (4 Bft) S-SW 210 0 min 0 W/m 14,8 C 17,5 C 21,9 km/h (4 Bft)
22.06.2013 16:46 21,2 C 67 % 1007,5 hPa 0,0 l/m 24,0 km/h (4 Bft) W-SW 240 0 min 0 W/m 14,8 C 17,1 C 24,0 km/h (4 Bft)
22.06.2013 17:00 21,4 C 67 % 1007,5 hPa 0,0 l/m 21,8 km/h (4 Bft) SW 235 0 min 0 W/m 15,0 C 17,7 C 21,8 km/h (4 Bft)
22.06.2013 17:15 21,2 C 67 % 1007,5 hPa 0,0 l/m 19,7 km/h (3 Bft) SW 230 0 min 0 W/m 14,8 C 17,8 C 19,7 km/h (3 Bft)
22.06.2013 17:31 21,1 C 69 % 1007,5 hPa 0,0 l/m 20,5 km/h (4 Bft) SW 225 0 min 0 W/m 15,2 C 17,5 C 20,5 km/h (4 Bft)
22.06.2013 17:45 20,0 C 73 % 1007,5 hPa 0,0 l/m 34,1 km/h (5 Bft) W-NW 285 0 min 0 W/m 15,0 C 14,3 C 34,1 km/h (5 Bft)
22.06.2013 18:00 18,7 C 78 % 1007,5 hPa 0,3 l/m 31,1 km/h (5 Bft) W 275 0 min 0 W/m 14,8 C 12,7 C 31,1 km/h (5 Bft)
22.06.2013 18:15 18,5 C 81 % 1007,5 hPa 0,0 l/m 33,6 km/h (5 Bft) W-NW 285 0 min 0 W/m 15,2 C 12,2 C 33,6 km/h (5 Bft)
22.06.2013 18:31 17,8 C 84 % 1007,5 hPa 0,6 l/m 35,1 km/h (5 Bft) W-NW 290 0 min 0 W/m 15,1 C 11,0 C 35,1 km/h (5 Bft)
22.06.2013 18:45 17,2 C 85 % 1007,5 hPa 0,3 l/m 38,0 km/h (6 Bft) W-NW 285 0 min 0 W/m 14,7 C 9,8 C 38,0 km/h (6 Bft)
22.06.2013 19:00 17,1 C 86 % 1007,5 hPa 0,3 l/m 27,0 km/h (5 Bft) W 280 0 min 0 W/m 14,7 C 11,1 C 27,0 km/h (5 Bft)
22.06.2013 19:16 17,4 C 86 % 1007,5 hPa 0,0 l/m 14,6 km/h (3 Bft) W-SW 245 0 min 0 W/m 15,0 C 14,2 C 14,6 km/h (3 Bft)
22.06.2013 19:30 17,5 C 86 % 1007,5 hPa 0,3 l/m 28,0 km/h (5 Bft) W 270 0 min 0 W/m 15,1 C 11,5 C 28,0 km/h (5 Bft)
22.06.2013 19:45 17,1 C 87 % 1007,5 hPa 0,0 l/m 50,9 km/h (7 Bft) W-NW 290 0 min 0 W/m 14,9 C 8,5 C 50,9 km/h (7 Bft)
22.06.2013 20:00 16,8 C 87 % 1007,5 hPa 0,0 l/m 27,7 km/h (5 Bft) W 280 0 min 0 W/m 14,6 C 10,6 C 27,7 km/h (5 Bft)
22.06.2013 20:15 16,8 C 87 % 1007,5 hPa 0,0 l/m 32,7 km/h (5 Bft) W-NW 295 0 min 0 W/m 14,6 C 9,8 C 32,7 km/h (5 Bft)
22.06.2013 20:30 16,8 C 87 % 1007,5 hPa 0,0 l/m 27,1 km/h (5 Bft) W 280 0 min 0 W/m 14,6 C 10,7 C 27,1 km/h (5 Bft)
22.06.2013 20:45 16,9 C 86 % 1007,5 hPa 0,0 l/m 25,8 km/h (4 Bft) W 275 0 min 0 W/m 14,5 C 11,0 C 25,8 km/h (4 Bft)
22.06.2013 21:00 16,9 C 85 % 1006,5 hPa 0,0 l/m 28,1 km/h (5 Bft) W 270 0 min 0 W/m 14,4 C 10,7 C 28,1 km/h (5 Bft)
22.06.2013 21:15 16,8 C 84 % 1007,5 hPa 0,0 l/m 29,6 km/h (5 Bft) W-NW 295 0 min 0 W/m 14,1 C 10,3 C 29,6 km/h (5 Bft)
22.06.2013 21:30 16,7 C 84 % 1007,5 hPa 0,0 l/m 28,8 km/h (5 Bft) W 280 0 min 0 W/m 14,0 C 10,3 C 28,8 km/h (5 Bft)
22.06.2013 21:45 16,6 C 84 % 1007,5 hPa 0,0 l/m 21,8 km/h (4 Bft) W 280 0 min 0 W/m 13,9 C 11,4 C 21,8 km/h (4 Bft)
22.06.2013 22:00 16,6 C 84 % 1007,5 hPa 0,0 l/m 26,6 km/h (4 Bft) W 275 0 min 0 W/m 13,9 C 10,5 C 26,6 km/h (4 Bft)
22.06.2013 22:15 16,6 C 84 % 1007,5 hPa 0,0 l/m 21,2 km/h (4 Bft) W 265 0 min 0 W/m 13,9 C 11,5 C 21,2 km/h (4 Bft)
22.06.2013 22:30 16,6 C 83 % 1007,5 hPa 0,0 l/m 19,3 km/h (3 Bft) W 260 0 min 0 W/m 13,7 C 12,0 C 19,3 km/h (3 Bft)
22.06.2013 22:45 16,7 C 84 % 1007,5 hPa 0,0 l/m 19,0 km/h (3 Bft) W 265 0 min 0 W/m 14,0 C 12,2 C 19,0 km/h (3 Bft)
22.06.2013 23:00 16,8 C 84 % 1007,5 hPa 0,0 l/m 12,8 km/h (3 Bft) SW 215 0 min 0 W/m 14,1 C 14,1 C 12,8 km/h (3 Bft)
22.06.2013 23:15 16,7 C 84 % 1007,5 hPa 0,0 l/m 19,4 km/h (3 Bft) W 270 0 min 0 W/m 14,0 C 12,1 C 19,4 km/h (3 Bft)
22.06.2013 23:30 16,6 C 85 % 1007,5 hPa 0,3 l/m 24,7 km/h (4 Bft) W-SW 250 0 min 0 W/m 14,1 C 10,8 C 24,7 km/h (4 Bft)
22.06.2013 23:45 16,4 C 86 % 1006,5 hPa 0,0 l/m 19,1 km/h (3 Bft) SW 235 0 min 0 W/m 14,1 C 11,8 C 19,1 km/h (3 Bft)
_ Min-Zeit 06:15 14:00 21:00 - 23:00 - - - - 06:15 03:30 23:00
Minimum _ 15,8 C 59 % 1006,5 hPa - 12,8 km/h (3 Bft) - - - - 13,5 C 8,1 C 12,8 km/h (3 Bft)
_ Max-Zeit 14:15 19:45 00:15 18:31 19:45 - - 00:00 00:00 17:31 16:15 19:45
Maximum _ 22,5 C 87 % 1010,5 hPa 0,6 l/m 50,9 km/h
W-NW (7 Bft)
- - 0 min 0 W/m 15,2 C 18,0 C 50,9 km/h
W-NW (7 Bft)
Durchschnitt _ 17,8 C 80 % 1009,2 hPa #2,1 l/m 29,4 km/h (5 Bft) W - #0 min. 0 W/m 14,2 C 11,9 C 29,4 km/h (5 Bft)
copyright by Holger Just